weather.gov     
National Weather Service

Regional Weather Roundup
NWS Homepage
This page is being discontinued on March 12, 2014.
The same data is available at this site. Please update your bookmarks.
Thank you, and we apologize for the inconvenience.
Please send an email to SR-SRH.Webmaster@noaa.gov with any concerns.


Current Version
Previous Version:    01  02  03  04  05  06  07  08  09  10  11  12  13  14  15  16  17  18  19  20  21  22  23  24  25  26  27  28  29  30  
   31  32  33  34  35  36  37  38  39  40  41  42  43  44  45  46  47  48  49  50  51  52  53  54  
[Printable]
729
ASUS43 KTOP 242259
RWRKS

WEATHER ROUNDUP FOR KANSAS
NATIONAL WEATHER SERVICE GOODLAND KS
500 PM CST MON NOV 24 2014

NOTE:  "FAIR" INDICATES FEW OR NO CLOUDS BELOW 12,000 FEET WITH NO
SIGNIFICANT WEATHER AND/OR OBSTRUCTIONS TO VISIBILITY.

KSZ001>006-013>018-027>032-041>047-250000-
NORTHWEST KANSAS

CITY           SKY/WX    TMP DP  RH WIND       PRES   REMARKS
GOODLAND       MOCLDY    41  18  39 N16       30.01R
HAYS           PTCLDY    45  14  29 N12       29.98R
HILL CITY      PTCLDY    43  16  33 NW7       29.99R
RUSSELL        CLEAR     46  17  31 NW16      29.97R
$$

KSZ061>065-074>080-084>089-250000-
SOUTHWEST KANSAS

CITY           SKY/WX    TMP DP  RH WIND       PRES   REMARKS
DODGE CITY     PTCLDY    47  16  29 NW7       29.99R
ELKHART          N/A     46   8  21 N8          N/A
GARDEN CITY    MOCLDY    45  18  34 N13       30.00R
GREAT BEND     CLEAR     46  14  27 N10       29.99R
LIBERAL        CLOUDY    50  10  20 NW12      30.03R
$$

KSZ066>073-081>083-090>101-250000-
SOUTHEAST KANSAS

CITY           SKY/WX    TMP DP  RH WIND       PRES   REMARKS
CHANUTE        CLEAR     45  22  40 NW10      29.95R
COFFEYVILLE    CLEAR     48  24  39 NW10      29.96R
HUTCHINSON     CLEAR     48  14  25 NW16G26   29.97R
MEDICINE LODGE   N/A     51  17  26 N12       29.99R
NEWTON         CLEAR     43  19  39 N12       29.99R
PARSONS        CLEAR     47  22  37 NW14      29.97R
WICHITA INTL   PTCLDY    48  15  26 NW10      29.97R
WICHITA JABRA  CLEAR     45  20  36 NW12      29.97R
WICHITA MCCONL CLEAR     47  14  26 N10       29.97R
WINFIELD       CLEAR     48  19  31 NW13      29.99R
$$

KSZ007>012-019>026-033>040-048>060-102>105-250000-
NORTHEAST KANSAS

CITY           SKY/WX    TMP DP  RH WIND       PRES   REMARKS
CONCORDIA      CLEAR     41  17  38 NW16      29.96R
EMPORIA        CLEAR     43  17  35 NW17G23   29.95R
LAWRENCE       PTCLDY    38  23  55 W15       29.93R WCI  29
MANHATTAN      CLEAR     43  12  28 NW10G17   29.96R
OLATHE IND     CLEAR     39  24  55 W12       29.92R WCI  32
OLATHE EXE     PTCLDY    40  23  50 W17G25    29.90R WCI  31
SALINA         CLEAR     45  20  36 NW13      29.98R
TOPEKA BILLARD CLEAR     41  20  43 NW12      29.94R
TOPEKA FORBES  CLEAR     40  20  44 NW13      29.93R WCI  32
$$




U.S. Dept. of Commerce
NOAA National Weather Service
1325 East West Highway
Silver Spring, MD 20910
E-mail: w-nws.webmaster@noaa.gov
Page last modified: May 16, 2007
NATIONAL WEATHER SERVICE: for Safety, for Work, for Fun - FOR LIFE